period_start,C,m1,H,J0,J1,J2,J3,J4,J5,JA,JB,JC,JD,JJ,JK,JN,#
2017-12-02 00:00:36,0.02,0.93,0.00,17.04,20.57,23.73,14.32,46.50,1021.04,2056.00,3124.54,2909.93,3255.97,599.99,610.87,35.99,0000 0000 0000 0000 000000
2017-12-02 00:05:38,0.05,0.93,0.00,17.06,20.58,23.74,14.29,46.46,1021.06,2055.99,3123.69,2909.15,3255.20,600.20,611.02,36.04,0000 0000 0000 0000 000000
2017-12-02 00:10:39,0.05,0.93,0.00,17.09,20.60,23.76,14.23,46.29,1021.03,2055.94,3122.62,2908.55,3254.26,599.91,610.74,36.09,0000 0000 0000 0000 000000
2017-12-02 00:15:40,0.04,0.94,0.00,17.09,20.63,23.80,14.33,46.41,1021.05,2055.79,3121.16,2907.68,3253.37,600.00,610.81,36.14,0000 0000 0000 0000 000000
2017-12-02 00:20:42,-0.01,0.94,0.00,17.10,20.64,23.80,14.30,46.43,1021.27,2055.31,3120.04,2907.02,3252.81,600.13,610.98,36.19,0000 0000 0000 0000 000000
2017-12-02 00:25:43,0.00,0.94,0.00,17.14,20.67,23.85,14.29,46.42,1021.36,2055.21,3119.67,2906.98,3252.11,599.96,610.90,36.24,0000 0000 0000 0000 000000
2017-12-02 00:30:44,0.03,0.94,0.00,17.15,20.68,23.85,14.25,46.40,1021.44,2055.09,3118.95,2906.31,3251.94,599.81,610.75,36.29,0000 0000 0000 0000 000000
2017-12-02 00:35:46,0.03,0.94,0.00,17.16,20.70,23.87,14.29,46.40,1021.38,2055.03,3117.97,2905.85,3251.13,600.08,610.95,36.34,0000 0000 0000 0000 000000
2017-12-02 00:40:47,0.04,0.94,0.00,17.17,20.72,23.84,14.28,46.42,1021.12,2055.02,3117.06,2905.09,3250.66,600.00,610.74,36.39,0000 0000 0000 0000 000000
2017-12-02 00:45:48,0.02,0.94,0.00,17.18,20.74,23.86,14.30,46.36,1021.03,2055.00,3116.30,2904.98,3250.02,599.79,610.42,36.44,0000 0000 0000 0000 000000
2017-12-02 00:50:49,0.01,0.94,0.00,17.18,20.75,23.91,14.28,46.38,1021.01,2055.00,3116.00,2904.68,3249.88,599.81,610.41,36.49,0000 0000 0000 0000 000000
2017-12-02 00:55:51,0.04,0.95,0.00,17.21,20.77,23.92,14.27,46.30,1021.01,2055.00,3115.58,2904.08,3249.14,600.04,610.49,36.54,0000 0000 0000 0000 000000
2017-12-02 01:00:52,0.00,0.95,0.00,17.22,20.79,23.93,14.30,46.42,1021.01,2054.99,3115.02,2904.00,3248.99,600.06,610.55,36.60,0000 0000 0000 0000 000000
2017-12-02 01:05:54,0.03,0.95,0.00,17.22,20.81,23.98,14.28,46.36,1021.01,2054.97,3114.56,2903.80,3248.64,600.02,610.64,36.65,0000 0000 0000 0000 000000
2017-12-02 01:10:55,0.03,0.95,0.00,17.23,20.82,23.98,14.25,46.38,1021.00,2054.96,3113.94,2903.09,3248.02,600.15,610.65,36.70,0000 0000 0000 0000 000000
2017-12-02 01:15:56,0.02,0.95,0.00,17.24,20.84,23.98,14.24,46.34,1020.91,2054.96,3113.10,2902.97,3247.72,599.86,610.24,36.75,0000 0000 0000 0000 000000
2017-12-02 01:20:58,0.04,0.95,0.00,17.25,20.86,23.99,14.24,46.38,1020.67,2054.96,3112.54,2902.29,3247.03,599.71,610.15,36.80,0000 0000 0000 0000 000000
2017-12-02 01:25:59,-0.01,0.95,0.00,17.26,20.87,24.01,14.24,46.37,1020.61,2054.76,3111.98,2902.00,3246.82,599.96,610.16,36.85,0000 0000 0000 0000 000000
2017-12-02 01:31:00,0.01,0.95,0.00,17.26,20.89,24.04,14.42,46.33,1020.60,2054.32,3110.96,2901.42,3245.93,600.17,610.29,36.90,0000 0000 0000 0000 000000
2017-12-02 01:36:02,0.05,0.96,0.00,17.28,20.91,24.04,14.23,46.35,1020.54,2054.21,3109.84,2900.77,3245.06,599.60,609.72,36.95,0000 0000 0000 0000 000000
2017-12-02 01:41:03,0.02,0.96,0.00,17.29,20.93,24.04,14.31,46.42,1020.52,2054.06,3109.05,2900.06,3244.82,599.96,610.05,37.00,0000 0000 0000 0000 000000
2017-12-02 01:46:05,0.00,0.96,0.00,17.29,20.94,24.06,14.36,46.42,1020.53,2054.05,3108.99,2900.00,3244.19,599.79,609.84,37.05,0000 0000 0000 0000 000000
2017-12-02 01:51:06,0.01,0.96,0.00,17.31,20.96,24.08,14.26,46.50,1020.52,2054.02,3108.67,2900.00,3244.02,599.67,609.69,37.10,0000 0000 0000 0000 000000
2017-12-02 01:56:07,0.01,0.96,0.00,17.32,20.98,24.10,14.26,46.38,1020.52,2054.00,3108.02,2899.86,3243.98,599.89,609.86,37.15,0000 0000 0000 0000 000000
2017-12-02 02:01:08,0.03,0.96,0.00,17.33,20.99,24.14,14.25,46.34,1020.50,2054.00,3107.94,2899.21,3243.52,600.06,609.86,37.20,0000 0000 0000 0000 000000
2017-12-02 02:06:10,0.02,0.96,0.00,17.34,21.02,24.15,14.22,46.28,1020.50,2054.00,3107.14,2898.98,3243.00,599.85,609.81,37.25,0000 0000 0000 0000 000000
2017-12-02 02:11:11,0.15,0.97,0.00,17.35,21.02,24.18,14.32,46.36,1020.52,2054.00,3104.67,2897.48,3241.39,600.14,610.09,37.30,0000 0000 0000 0000 000000
2017-12-02 02:16:12,0.12,0.97,0.00,17.37,21.04,24.15,14.34,46.34,1020.51,2053.99,3101.53,2895.61,3239.27,600.37,610.25,37.35,0000 0000 0000 0000 000000
2017-12-02 02:21:13,0.04,0.98,0.00,17.37,21.06,24.19,14.26,46.33,1020.49,2053.98,3100.06,2894.84,3238.36,599.91,609.89,37.41,0000 0000 0000 0000 000000
2017-12-02 02:26:15,0.05,0.98,0.00,17.38,21.07,24.18,14.36,46.47,1020.48,2053.98,3098.89,2894.05,3237.76,600.38,610.27,37.46,0000 0000 0000 0000 000000
2017-12-02 02:31:16,0.06,0.98,0.00,17.39,21.09,24.19,14.29,46.46,1020.47,2053.98,3097.68,2893.46,3236.85,599.85,609.67,37.51,0000 0000 0000 0000 000000
2017-12-02 02:36:18,0.08,0.99,0.00,17.39,21.09,24.21,14.32,46.53,1020.40,2053.97,3096.00,2892.47,3235.69,600.46,610.27,37.56,0000 0000 0000 0000 000000
2017-12-02 02:41:19,0.07,0.99,0.00,17.42,21.11,24.25,14.30,46.48,1020.47,2053.98,3094.22,2891.18,3234.39,599.98,609.72,37.61,0000 0000 0000 0000 000000
2017-12-02 02:46:20,0.02,0.99,0.00,17.42,21.12,24.25,14.22,46.39,1020.44,2053.96,3093.42,2890.86,3233.87,599.79,609.54,37.66,0000 0000 0000 0000 000000
2017-12-02 02:51:21,0.08,1.00,0.00,17.43,21.14,24.30,14.34,46.50,1020.47,2053.88,3091.75,2889.72,3232.59,600.26,610.05,37.71,0000 0000 0000 0000 000000
2017-12-02 02:56:22,0.02,1.00,0.00,17.44,21.14,24.26,14.32,46.48,1020.42,2053.80,3090.87,2889.03,3231.99,600.11,609.81,37.76,0000 0000 0000 0000 000000
2017-12-02 03:01:24,0.01,1.00,0.00,17.45,21.16,24.28,14.29,46.46,1020.10,2053.60,3090.08,2888.96,3231.35,599.95,609.37,37.81,0000 0000 0000 0000 000000
2017-12-02 03:06:25,0.02,1.00,0.00,17.46,21.17,24.33,14.31,46.42,1020.07,2053.33,3089.74,2888.38,3231.00,599.84,609.28,37.86,0000 0000 0000 0000 000000
2017-12-02 03:11:26,0.02,1.00,0.00,17.46,21.19,24.27,14.40,46.45,1020.05,2053.13,3088.75,2887.82,3230.19,600.44,609.83,37.91,0000 0000 0000 0000 000000
2017-12-02 03:16:27,0.11,1.00,0.00,17.49,21.20,24.28,14.29,46.41,1020.04,2053.04,3086.95,2886.45,3228.64,600.13,609.42,37.96,0000 0000 0000 0000 000000
2017-12-02 03:21:28,0.08,1.01,0.00,17.54,21.22,24.28,14.25,46.38,1020.04,2053.00,3085.04,2884.99,3227.01,599.81,609.10,38.01,0000 0000 0000 0000 000000
2017-12-02 03:26:30,0.05,1.01,0.00,17.52,21.22,24.34,14.18,46.36,1020.04,2053.00,3083.86,2884.09,3226.06,600.04,609.35,38.06,0000 0000 0000 0000 000000
2017-12-02 03:31:31,0.03,1.01,0.00,17.52,21.24,24.35,14.24,46.31,1020.04,2053.00,3083.02,2883.83,3225.49,600.05,609.42,38.11,0000 0000 0000 0000 000000
2017-12-02 03:36:32,0.03,1.02,0.00,17.55,21.24,24.36,14.27,46.39,1020.03,2053.00,3082.21,2883.08,3225.00,600.03,609.31,38.16,0000 0000 0000 0000 000000
2017-12-02 03:41:33,0.00,1.02,0.00,17.56,21.27,24.38,14.36,46.43,1020.00,2053.00,3081.95,2883.00,3224.82,600.01,609.31,38.21,0000 0000 0000 0000 000000
2017-12-02 03:46:35,0.04,1.02,0.00,17.57,21.27,24.35,14.19,46.31,1019.87,2052.99,3081.14,2882.69,3224.07,599.88,609.03,38.26,0000 0000 0000 0000 000000
2017-12-02 03:51:36,0.04,1.02,0.00,17.57,21.28,24.37,14.31,46.51,1019.66,2052.98,3080.28,2882.03,3223.54,600.44,609.48,38.31,0000 0000 0000 0000 000000
2017-12-02 03:56:38,0.04,1.02,0.00,17.57,21.29,24.36,14.23,46.48,1019.65,2052.97,3079.28,2881.50,3222.96,599.91,608.87,38.37,0000 0000 0000 0000 000000
2017-12-02 04:01:39,0.03,1.02,0.00,17.57,21.30,24.42,14.30,46.55,1019.62,2052.97,3078.63,2881.01,3222.18,600.06,609.03,38.42,0000 0000 0000 0000 000000
2017-12-02 04:06:41,-0.00,1.03,0.00,17.58,21.32,24.45,14.27,46.58,1019.83,2052.91,3078.01,2880.93,3221.95,599.80,608.83,38.47,0000 0000 0000 0000 000000
2017-12-02 04:11:42,0.03,1.03,0.00,17.57,21.32,24.40,14.29,46.48,1019.79,2052.75,3077.53,2880.29,3221.24,600.12,609.24,38.52,0000 0000 0000 0000 000000
2017-12-02 04:16:43,0.00,1.03,0.00,17.57,21.32,24.41,14.28,46.45,1019.71,2052.63,3077.01,2880.01,3221.00,600.02,609.13,38.57,0000 0000 0000 0000 000000
2017-12-02 04:21:44,-0.03,1.03,0.00,17.59,21.32,24.41,14.21,46.42,1019.68,2052.26,3076.89,2880.00,3220.91,599.71,608.72,38.62,0000 0000 0000 0000 000000
2017-12-02 04:26:46,0.01,1.03,0.00,17.58,21.34,24.43,14.30,46.52,1019.81,2052.07,3076.14,2879.98,3220.25,600.22,609.27,38.67,0000 0000 0000 0000 000000
2017-12-02 04:31:48,0.00,1.03,0.00,17.58,21.34,24.44,14.29,46.48,1019.88,2052.10,3076.00,2879.88,3220.04,600.00,609.23,38.72,0000 0000 0000 0000 000000
2017-12-02 04:36:49,0.01,1.03,0.00,17.60,21.34,24.44,14.24,46.42,1019.93,2052.02,3075.78,2879.37,3220.00,599.93,609.16,38.77,0000 0000 0000 0000 000000
2017-12-02 04:41:50,0.02,1.03,0.00,17.61,21.34,24.44,14.19,46.43,1019.75,2052.04,3075.07,2879.06,3219.92,599.94,608.89,38.82,0000 0000 0000 0000 000000
2017-12-02 04:46:51,0.01,1.03,0.00,17.60,21.34,24.45,14.18,46.48,1019.84,2052.04,3074.96,2879.00,3219.36,599.60,608.53,38.87,0000 0000 0000 0000 000000
2017-12-02 04:51:53,0.01,1.03,0.00,17.60,21.35,24.45,14.23,46.38,1019.84,2052.02,3074.22,2879.00,3219.01,599.88,608.95,38.92,0000 0000 0000 0000 000000
2017-12-02 04:56:54,0.00,1.03,0.00,17.62,21.36,24.42,14.29,46.42,1019.92,2052.02,3073.99,2878.98,3218.98,599.93,608.92,38.97,0000 0000 0000 0000 000000
2017-12-02 05:01:55,0.04,1.03,0.00,17.62,21.37,24.44,14.29,46.34,1019.98,2052.02,3073.28,2878.71,3218.48,599.93,609.07,39.02,0000 0000 0000 0000 000000
2017-12-02 05:06:57,0.02,1.03,0.00,17.63,21.37,24.45,14.29,46.39,1019.73,2052.00,3072.96,2878.08,3218.02,600.06,608.98,39.07,0000 0000 0000 0000 000000
2017-12-02 05:11:58,0.02,1.03,0.00,17.64,21.37,24.46,14.28,46.54,1019.62,2052.00,3072.12,2878.00,3217.86,600.14,608.89,39.12,0000 0000 0000 0000 000000
2017-12-02 05:16:59,0.05,1.04,0.00,17.64,21.37,24.49,14.24,46.41,1019.61,2052.00,3071.30,2877.48,3217.02,599.80,608.70,39.17,0000 0000 0000 0000 000000
2017-12-02 05:22:00,0.15,1.04,0.00,17.62,21.37,24.50,14.21,46.47,1019.62,2052.00,3068.57,2875.75,3215.16,599.66,608.51,39.22,0000 0000 0000 0000 000000
2017-12-02 05:27:01,0.09,1.05,0.00,17.62,21.38,24.46,14.26,46.42,1019.59,2052.00,3066.06,2874.13,3213.32,599.92,608.80,39.28,0000 0000 0000 0000 000000
2017-12-02 05:32:03,0.01,1.05,0.00,17.64,21.39,24.48,14.27,46.52,1019.57,2052.00,3065.10,2873.99,3212.98,600.06,608.79,39.33,0000 0000 0000 0000 000000
2017-12-02 05:37:04,0.05,1.05,0.00,17.64,21.39,24.52,14.19,46.52,1019.55,2052.00,3064.24,2873.44,3212.40,599.87,608.73,39.38,0000 0000 0000 0000 000000
2017-12-02 05:42:05,0.04,1.06,0.00,17.64,21.39,24.48,14.26,46.40,1019.55,2052.00,3062.99,2872.89,3211.51,599.89,608.65,39.43,0000 0000 0000 0000 000000
2017-12-02 05:47:06,0.04,1.06,0.00,17.66,21.40,24.49,14.28,46.42,1019.55,2052.00,3062.06,2872.16,3211.00,600.24,608.97,39.48,0000 0000 0000 0000 000000
2017-12-02 05:52:08,0.04,1.06,0.00,17.67,21.41,24.53,14.29,46.48,1019.55,2051.99,3060.97,2871.95,3210.29,600.14,608.98,39.53,0000 0000 0000 0000 000000
2017-12-02 05:57:09,0.05,1.06,0.00,17.67,21.42,24.48,14.14,46.38,1019.55,2051.99,3059.88,2871.17,3209.77,599.87,608.48,39.58,0000 0000 0000 0000 000000
2017-12-02 06:02:10,0.02,1.06,0.00,17.68,21.42,24.51,14.27,46.41,1019.55,2051.99,3059.05,2871.00,3209.08,600.14,608.74,39.63,0000 0000 0000 0000 000000
2017-12-02 06:07:11,0.03,1.06,0.00,17.68,21.43,24.55,14.29,46.42,1019.55,2051.98,3058.21,2870.78,3208.78,600.21,608.85,39.68,0000 0000 0000 0000 000000
2017-12-02 06:12:13,0.04,1.07,0.00,17.68,21.44,24.53,14.24,46.40,1019.55,2051.98,3057.20,2870.04,3208.03,599.99,608.74,39.73,0000 0000 0000 0000 000000
2017-12-02 06:17:14,0.02,1.07,0.00,17.69,21.44,24.51,14.28,46.54,1019.57,2051.98,3056.55,2869.99,3207.74,600.18,608.77,39.78,0000 0000 0000 0000 000000
2017-12-02 06:22:15,0.01,1.07,0.00,17.69,21.44,24.54,14.17,46.47,1019.58,2051.98,3056.01,2869.94,3207.06,599.88,608.43,39.83,0000 0000 0000 0000 000000
2017-12-02 06:27:16,0.04,1.07,0.00,17.69,21.45,24.58,14.29,46.47,1019.56,2051.96,3055.38,2869.26,3206.96,600.15,608.89,39.88,0000 0000 0000 0000 000000
2017-12-02 06:32:17,0.02,1.07,0.00,17.70,21.45,24.57,14.24,46.59,1019.55,2051.92,3054.58,2869.00,3206.30,600.13,608.73,39.93,0000 0000 0000 0000 000000
2017-12-02 06:37:19,0.00,1.07,0.00,17.71,21.46,24.58,14.42,46.56,1019.55,2051.79,3054.00,2868.98,3206.00,600.29,608.84,39.98,0000 0000 0000 0000 000000
2017-12-02 06:42:20,0.01,1.07,0.00,17.72,21.47,24.56,14.37,46.45,1019.55,2051.69,3053.38,2868.75,3205.87,600.11,608.73,40.03,0000 0000 0000 0000 000000
2017-12-02 06:47:21,0.03,1.07,0.00,17.71,21.47,24.56,14.32,46.51,1019.56,2051.65,3052.98,2868.27,3205.22,600.38,609.04,40.08,0000 0000 0000 0000 000000
2017-12-02 06:52:22,-0.02,1.08,0.00,17.72,21.47,24.58,14.29,46.52,1019.58,2051.43,3052.26,2868.01,3205.00,600.04,608.70,40.14,0000 0000 0000 0000 000000
2017-12-02 06:57:23,0.02,1.07,0.00,17.74,21.47,24.55,14.22,46.49,1019.58,2051.27,3051.65,2867.99,3204.72,600.04,608.78,40.19,0000 0000 0000 0000 000000
2017-12-02 07:02:24,0.05,1.08,0.00,17.74,21.47,24.56,14.22,46.44,1019.56,2051.31,3050.77,2867.65,3204.03,600.33,608.90,40.24,0000 0000 0000 0000 000000
2017-12-02 07:07:26,0.04,1.08,0.00,17.73,21.47,24.55,14.30,46.52,1019.56,2051.46,3049.98,2867.09,3203.87,600.15,608.60,40.29,0000 0000 0000 0000 000000
2017-12-02 07:12:27,0.04,1.08,0.00,17.73,21.47,24.56,14.24,46.41,1019.57,2051.57,3049.13,2867.00,3203.10,599.63,608.14,40.34,0000 0000 0000 0000 000000
2017-12-02 07:17:28,0.01,1.08,0.00,17.74,21.47,24.56,14.19,46.44,1019.55,2051.57,3048.52,2866.91,3202.99,599.85,608.58,40.39,0000 0000 0000 0000 000000
2017-12-02 07:22:30,0.00,1.08,0.00,17.73,21.48,24.55,14.27,46.48,1019.55,2051.36,3047.99,2866.43,3202.69,600.21,608.68,40.44,0000 0000 0000 0000 000000
2017-12-02 07:27:31,0.02,1.08,0.00,17.72,21.49,24.59,14.23,46.54,1019.55,2051.26,3047.31,2866.03,3202.05,599.82,608.45,40.49,0000 0000 0000 0000 000000
2017-12-02 07:32:33,0.00,1.08,0.00,17.73,21.49,24.60,14.32,46.47,1019.56,2051.16,3046.86,2866.01,3202.00,600.24,608.86,40.54,0000 0000 0000 0000 000000
2017-12-02 07:37:34,0.02,1.09,0.00,17.74,21.49,24.59,14.25,46.43,1019.55,2051.12,3046.06,2865.99,3201.52,599.82,608.21,40.59,0000 0000 0000 0000 000000
2017-12-02 07:42:35,0.01,1.09,0.00,17.74,21.49,24.61,14.28,46.53,1019.55,2051.06,3045.38,2865.88,3201.02,600.00,608.60,40.64,0000 0000 0000 0000 000000
2017-12-02 07:47:36,0.02,1.09,0.00,17.75,21.49,24.61,14.35,46.52,1019.55,2051.07,3044.88,2865.26,3200.98,600.24,608.83,40.69,0000 0000 0000 0000 000000
2017-12-02 07:52:37,0.02,1.09,0.00,17.75,21.49,24.60,14.31,46.54,1019.55,2051.04,3044.06,2865.01,3200.41,600.15,608.59,40.74,0000 0000 0000 0000 000000
2017-12-02 07:57:38,0.02,1.09,0.00,17.75,21.49,24.62,14.26,46.51,1019.55,2051.06,3043.42,2865.00,3200.01,599.90,608.54,40.79,0000 0000 0000 0000 000000
2017-12-02 08:02:40,0.00,1.09,0.00,17.74,21.49,24.61,14.28,46.52,1019.55,2051.04,3042.84,2864.97,3199.95,600.23,608.81,40.84,0000 0000 0000 0000 000000
2017-12-02 08:07:41,0.05,1.09,0.00,17.75,21.50,24.60,14.15,46.47,1019.55,2051.03,3042.06,2864.57,3199.22,599.94,608.51,40.89,0000 0000 0000 0000 000000
2017-12-02 08:12:42,0.02,1.09,0.00,17.74,21.50,24.63,14.25,46.49,1019.55,2051.05,3041.59,2864.18,3199.02,599.93,608.48,40.94,0000 0000 0000 0000 000000
2017-12-02 08:17:43,0.01,1.09,0.00,17.74,21.51,24.64,14.29,46.54,1019.55,2051.05,3040.94,2864.03,3198.99,600.26,608.82,40.99,0000 0000 0000 0000 000000
2017-12-02 08:22:45,0.02,1.10,0.00,17.73,21.52,24.60,14.27,46.65,1019.55,2051.04,3040.11,2864.00,3198.58,600.70,609.28,41.04,0000 0000 0000 0000 000000
2017-12-02 08:27:46,0.02,1.10,0.00,17.73,21.52,24.61,14.25,46.57,1019.55,2051.02,3039.54,2863.97,3198.02,599.84,608.49,41.10,0000 0000 0000 0000 000000
2017-12-02 08:32:47,0.03,1.10,0.00,17.74,21.52,24.62,14.30,46.61,1019.55,2051.03,3038.78,2863.65,3197.87,600.06,608.54,41.15,0000 0000 0000 0000 000000
2017-12-02 08:37:48,0.04,1.10,0.00,17.74,21.52,24.61,14.21,46.71,1019.55,2051.01,3037.75,2863.00,3197.05,599.89,608.33,41.20,0000 0000 0000 0000 000000
2017-12-02 08:42:49,0.08,1.10,0.00,17.74,21.52,24.62,14.24,46.75,1019.55,2051.01,3035.97,2862.13,3195.99,600.04,608.62,41.25,0000 0000 0000 0000 000000
2017-12-02 08:47:51,0.09,1.11,0.00,17.74,21.52,24.62,14.21,46.68,1019.55,2051.00,3034.00,2861.09,3194.68,599.98,608.53,41.30,0000 0000 0000 0000 000000
2017-12-02 08:52:52,0.06,1.11,0.00,17.74,21.53,24.64,14.32,46.67,1019.55,2051.00,3032.49,2860.12,3193.71,600.11,608.69,41.35,0000 0000 0000 0000 000000
2017-12-02 08:57:53,0.02,1.11,0.00,17.74,21.54,24.64,14.28,46.76,1019.55,2051.00,3031.40,2859.98,3193.03,600.45,609.05,41.40,0000 0000 0000 0000 000000
2017-12-02 09:02:55,0.01,1.11,0.00,17.74,21.54,24.62,14.24,46.84,1019.49,2051.00,3030.76,2859.89,3192.88,600.12,608.65,41.45,0000 0000 0000 0000 000000
2017-12-02 09:07:56,0.04,1.12,0.00,17.74,21.54,24.65,14.26,46.86,1019.26,2051.00,3030.04,2859.46,3192.13,600.00,608.39,41.50,0000 0000 0000 0000 000000
2017-12-02 09:12:57,0.02,1.12,0.00,17.73,21.54,24.65,14.24,46.90,1019.08,2051.00,3029.65,2859.07,3192.00,599.84,608.19,41.55,0000 0000 0000 0000 000000
2017-12-02 09:17:58,0.00,1.12,0.00,17.74,21.54,24.71,14.25,46.97,1019.07,2051.00,3029.02,2859.01,3191.99,600.07,608.47,41.60,0000 0000 0000 0000 000000
2017-12-02 09:22:59,0.02,1.12,0.00,17.74,21.54,24.71,14.24,46.98,1019.08,2051.00,3028.42,2859.00,3191.56,599.90,608.18,41.65,0000 0000 0000 0000 000000
2017-12-02 09:28:01,0.00,1.12,0.00,17.74,21.54,24.69,14.35,47.03,1019.13,2051.00,3028.01,2859.00,3191.06,600.17,608.50,41.70,0000 0000 0000 0000 000000
2017-12-02 09:33:02,0.02,1.12,0.00,17.75,21.54,24.67,14.34,47.00,1019.07,2051.00,3027.38,2858.88,3190.89,600.10,608.30,41.75,0000 0000 0000 0000 000000
2017-12-02 09:38:04,0.06,1.12,0.00,17.74,21.54,24.70,14.24,46.98,1019.08,2051.00,3026.25,2858.06,3189.95,600.27,608.58,41.80,0000 0000 0000 0000 000000
2017-12-02 09:43:05,0.06,1.13,0.00,17.72,21.54,24.73,14.25,46.93,1019.25,2051.00,3025.16,2857.38,3189.07,599.94,608.43,41.85,0000 0000 0000 0000 000000
2017-12-02 09:48:06,0.02,1.13,0.00,17.72,21.54,24.72,14.19,46.94,1019.38,2051.00,3024.23,2857.00,3188.87,599.92,608.39,41.90,0000 0000 0000 0000 000000
2017-12-02 09:53:08,0.01,1.13,0.00,17.72,21.54,24.68,14.34,46.92,1019.23,2051.00,3023.91,2857.00,3188.13,600.19,608.65,41.95,0000 0000 0000 0000 000000
2017-12-02 09:58:09,0.01,1.13,0.00,17.72,21.54,24.67,14.21,46.73,1019.20,2051.00,3023.10,2856.98,3188.00,599.91,608.36,42.01,0000 0000 0000 0000 000000
2017-12-02 10:03:10,0.00,1.13,0.00,17.72,21.54,24.66,14.40,46.88,1019.19,2051.00,3022.88,2856.98,3187.99,600.38,608.77,42.06,0000 0000 0000 0000 000000
2017-12-02 10:08:11,0.02,1.13,0.00,17.72,21.54,24.66,14.31,46.83,1019.23,2051.00,3022.11,2856.95,3187.84,599.88,608.30,42.11,0000 0000 0000 0000 000000
2017-12-02 10:13:12,0.03,1.13,0.00,17.72,21.54,24.65,14.37,46.87,1019.28,2051.00,3021.83,2856.62,3187.16,600.11,608.56,42.16,0000 0000 0000 0000 000000
2017-12-02 10:18:14,0.02,1.13,0.00,17.72,21.54,24.66,14.27,46.77,1019.38,2051.00,3021.08,2856.24,3187.01,600.00,608.47,42.21,0000 0000 0000 0000 000000
2017-12-02 10:23:15,0.01,1.13,0.00,17.72,21.54,24.63,14.23,46.80,1019.41,2051.00,3020.77,2856.04,3186.98,599.75,608.27,42.26,0000 0000 0000 0000 000000
2017-12-02 10:28:16,0.02,1.14,0.00,17.72,21.54,24.61,14.33,46.96,1019.53,2050.99,3020.02,2856.01,3186.50,600.43,609.07,42.31,0000 0000 0000 0000 000000
2017-12-02 10:33:17,0.02,1.14,0.00,17.73,21.54,24.62,14.34,46.88,1019.55,2050.99,3019.17,2855.97,3186.01,600.46,609.03,42.36,0000 0000 0000 0000 000000
2017-12-02 10:38:18,0.03,1.14,0.00,17.72,21.54,24.64,14.36,46.87,1019.54,2050.99,3018.51,2855.72,3185.77,600.33,608.99,42.41,0000 0000 0000 0000 000000
2017-12-02 10:43:20,0.04,1.14,0.00,17.72,21.54,24.64,14.18,46.87,1019.55,2050.99,3017.68,2855.05,3185.04,599.81,608.47,42.46,0000 0000 0000 0000 000000
2017-12-02 10:48:21,0.05,1.14,0.00,17.72,21.54,24.61,14.32,46.83,1019.55,2050.99,3016.51,2854.63,3184.37,600.21,608.79,42.51,0000 0000 0000 0000 000000
2017-12-02 10:53:22,0.04,1.15,0.00,17.72,21.54,24.63,14.29,46.73,1019.55,2050.99,3015.30,2853.98,3183.56,599.92,608.57,42.56,0000 0000 0000 0000 000000
2017-12-02 10:58:23,0.10,1.15,0.00,17.71,21.54,24.66,14.24,46.77,1019.54,2050.99,3013.36,2852.89,3182.30,599.62,608.26,42.61,0000 0000 0000 0000 000000
2017-12-02 11:03:25,0.11,1.16,0.00,17.72,21.54,24.66,14.21,46.83,1019.41,2050.99,3010.67,2851.33,3180.45,599.77,608.29,42.66,0000 0000 0000 0000 000000
2017-12-02 11:08:26,0.02,1.16,0.00,17.72,21.54,24.66,14.29,46.75,1019.25,2050.99,3009.67,2851.00,3180.00,600.15,608.64,42.71,0000 0000 0000 0000 000000
2017-12-02 11:13:27,0.02,1.16,0.00,17.73,21.54,24.65,14.31,46.82,1019.17,2050.99,3009.00,2850.96,3179.47,599.99,608.45,42.76,0000 0000 0000 0000 000000
2017-12-02 11:18:29,0.02,1.16,0.00,17.73,21.54,24.65,14.23,46.86,1019.11,2050.99,3008.49,2850.76,3179.04,599.99,608.42,42.82,0000 0000 0000 0000 000000
2017-12-02 11:23:30,0.02,1.16,0.00,17.72,21.54,24.64,14.22,46.77,1019.28,2050.98,3007.93,2850.16,3178.94,599.96,608.36,42.87,0000 0000 0000 0000 000000
2017-12-02 11:28:31,0.03,1.16,0.00,17.69,21.54,24.66,14.31,46.88,1019.35,2050.99,3007.12,2850.00,3178.23,600.05,608.49,42.92,0000 0000 0000 0000 000000
2017-12-02 11:33:33,0.01,1.16,0.00,17.69,21.54,24.68,14.28,46.81,1019.21,2050.98,3006.68,2849.98,3178.00,599.96,608.49,42.97,0000 0000 0000 0000 000000
2017-12-02 11:38:34,0.02,1.16,0.00,17.69,21.54,24.69,14.18,46.87,1019.12,2050.98,3006.03,2849.82,3177.90,599.88,608.22,43.02,0000 0000 0000 0000 000000
2017-12-02 11:43:35,0.04,1.17,0.00,17.69,21.54,24.69,14.24,46.89,1019.07,2050.98,3005.51,2849.26,3177.23,600.10,608.54,43.07,0000 0000 0000 0000 000000
2017-12-02 11:48:36,0.00,1.17,0.00,17.69,21.54,24.69,14.31,46.81,1019.07,2050.99,3005.01,2849.05,3177.00,600.33,608.63,43.12,0000 0000 0000 0000 000000
2017-12-02 11:53:37,0.01,1.17,0.00,17.69,21.54,24.72,14.28,46.87,1019.07,2050.98,3004.55,2849.01,3176.99,599.69,607.99,43.17,0000 0000 0000 0000 000000
2017-12-02 11:58:39,0.01,1.17,0.00,17.68,21.54,24.67,14.22,46.85,1019.12,2050.98,3004.00,2849.00,3176.87,599.96,608.37,43.22,0000 0000 0000 0000 000000
2017-12-02 12:03:40,0.02,1.17,0.00,17.68,21.53,24.70,14.21,46.76,1019.37,2050.98,3003.73,2849.00,3176.18,599.92,608.49,43.27,0000 0000 0000 0000 000000
2017-12-02 12:08:41,0.01,1.17,0.00,17.70,21.52,24.71,14.22,46.77,1019.20,2050.99,3003.05,2848.99,3176.02,600.05,608.49,43.32,0000 0000 0000 0000 000000
2017-12-02 12:13:42,0.00,1.17,0.00,17.67,21.52,24.70,14.24,46.76,1019.17,2050.99,3002.83,2848.92,3175.99,599.95,608.42,43.37,0000 0000 0000 0000 000000
2017-12-02 12:18:44,0.04,1.17,0.00,17.68,21.52,24.70,14.27,46.73,1019.37,2050.99,3002.06,2848.34,3175.62,600.09,608.62,43.42,0000 0000 0000 0000 000000
2017-12-02 12:23:45,0.01,1.17,0.00,17.68,21.52,24.66,14.19,46.75,1019.53,2050.99,3001.82,2848.05,3175.07,600.02,608.70,43.47,0000 0000 0000 0000 000000
2017-12-02 12:28:46,0.01,1.17,0.00,17.67,21.52,24.69,14.23,46.64,1019.52,2050.99,3001.08,2848.01,3175.00,599.95,608.59,43.52,0000 0000 0000 0000 000000
2017-12-02 12:33:47,0.00,1.18,0.00,17.69,21.52,24.65,14.30,46.68,1019.55,2050.99,3000.96,2848.00,3174.98,600.03,608.60,43.57,0000 0000 0000 0000 000000
2017-12-02 12:38:48,0.02,1.18,0.00,17.69,21.52,24.63,14.21,46.88,1019.53,2050.99,3000.26,2848.00,3174.71,599.57,608.28,43.62,0000 0000 0000 0000 000000
2017-12-02 12:43:50,0.00,1.18,0.00,17.67,21.52,24.65,14.19,46.81,1019.31,2050.99,3000.00,2847.98,3174.11,599.91,608.50,43.67,0000 0000 0000 0000 000000
2017-12-02 12:48:51,0.01,1.18,0.00,17.68,21.52,24.64,14.24,46.75,1019.09,2050.99,2999.68,2847.98,3174.01,600.01,608.43,43.72,0000 0000 0000 0000 000000
2017-12-02 12:53:52,0.01,1.18,0.00,17.67,21.51,24.70,14.31,46.77,1019.26,2050.99,2999.04,2847.92,3174.00,600.26,608.69,43.77,0000 0000 0000 0000 000000